Weather History for Taunton, MA

Change the Weather History Date:

Sunday, January 6, 2013

  Actual Average Record
Temperature  
Mean Temperature 32 °F -  
Max Temperature 42 °F 36 °F 62 °F (2014)
Min Temperature 21 °F 17 °F 2 °F (1976)
Degree Days  
Heating Degree Days 34    
Moisture  
Dew Point 26 °F    
Average Humidity 80    
Maximum Humidity 89    
Minimum Humidity 58    
Precipitation  
Precipitation 0.03 in - - ()
Sea Level Pressure  
Sea Level Pressure 30.05 in    
Wind  
Wind Speed 2 mph (SW)    
Max Wind Speed 12 mph    
Max Gust Speed 17 mph    
Visibility 6 miles    
Events Snow    
Averages and records for this station are not official NWS values.
T = Trace of Precipitation, MM = Missing Value Source: NWS Daily Summary

Daily Weather History Graph

Daily Weather History Graph

Search for Another Location

Airport:

Trip Planner

Search our weather history database for the weather conditions in past years. The results will help you decide how hot, cold, wet, or windy it might be!

Date:

Astronomy

Jan. 06, 2013 Rise Set
Actual Time 7:11 AM EST 4:28 PM EST
Civil Twilight 6:40 AM EST 4:59 PM EST
Nautical Twilight 6:05 AM EST 5:34 PM EST
Astronomical Twilight 5:31 AM EST 6:08 PM EST
Moon 1:20 AM EST (1/6) 11:55 AM EST (1/6)
Length of Visible Light 10h 19m
Length of Day
9h 16m
Waning Crescent, 33% of the Moon is Illuminated
Jan 6
Waning Crescent
Jan 11
New
Jan 18
First Quarter
Jan 26
Full
Feb 3
Last Quarter

Hourly Weather History & Observations

Time (EST) Temp. Windchill Dew Point Humidity Pressure Visibility Wind Dir Wind Speed Gust Speed Precip Events Conditions
12:52 AM 21.9 °F - 18.0 °F 85% 30.18 in 9.0 mi Calm Calm - N/A   Clear
1:52 AM 25.0 °F 20.7 °F 21.0 °F 85% 30.22 in 8.0 mi WNW 3.5 mph - N/A   Partly Cloudy
2:52 AM 27.0 °F - 21.0 °F 78% 30.19 in 8.0 mi Calm Calm - N/A   Overcast
3:52 AM 27.0 °F - 23.0 °F 85% 30.17 in 8.0 mi Calm Calm - N/A   Overcast
4:52 AM 28.9 °F 25.2 °F 21.9 °F 75% 30.13 in 9.0 mi Variable 3.5 mph - N/A   Overcast
5:31 AM 30.9 °F - 25.0 °F 79% 30.12 in 2.0 mi Calm Calm - 0.00 in Snow Light Snow
5:44 AM 30.9 °F - 26.1 °F 82% 30.11 in 1.8 mi Calm Calm - 0.00 in Snow Light Snow
5:52 AM 30.9 °F - 26.1 °F 82% 30.11 in 2.0 mi Calm Calm - 0.00 in Snow Light Snow
6:03 AM 30.0 °F - 26.1 °F 85% 30.11 in 3.0 mi Calm Calm - 0.01 in Snow Light Snow
6:07 AM 30.0 °F - 26.1 °F 85% 30.11 in 2.5 mi Calm Calm - 0.01 in Snow Light Snow
6:19 AM 30.0 °F - 26.1 °F 85% 30.11 in 1.5 mi Calm Calm - 0.01 in Snow Light Snow
6:50 AM 30.2 °F 26.7 °F 26.6 °F 86% 30.10 in 1.5 mi South 3.5 mph - 0.03 in Snow Light Snow
6:52 AM 30.0 °F 26.5 °F 27.0 °F 88% 30.10 in 1.8 mi South 3.5 mph - 0.03 in Snow Light Snow
6:55 AM 30.0 °F 26.5 °F 27.0 °F 88% 30.10 in 2.0 mi South 3.5 mph - 0.00 in Snow Light Snow
7:06 AM 30.0 °F - 27.0 °F 88% 30.10 in 4.0 mi Calm Calm - 0.00 in Snow Light Snow
7:52 AM 32.0 °F 27.5 °F 28.9 °F 88% 30.09 in 6.0 mi South 4.6 mph - 0.00 in   Overcast
8:52 AM 34.0 °F 29.8 °F 30.0 °F 85% 30.09 in 6.0 mi SW 4.6 mph - N/A   Overcast
9:52 AM 37.0 °F 29.8 °F 30.0 °F 76% 30.08 in 7.0 mi SW 10.4 mph 16.1 mph N/A   Partly Cloudy
10:52 AM 37.9 °F 30.9 °F 28.9 °F 70% 30.04 in 7.0 mi SW 10.4 mph - N/A   Clear
11:39 AM 39.0 °F 31.8 °F 28.9 °F 67% 30.01 in 9.0 mi SW 11.5 mph - N/A   Mostly Cloudy
11:52 AM 39.0 °F 33.4 °F 28.9 °F 67% 30.00 in 9.0 mi SW 8.1 mph 17.3 mph N/A   Mostly Cloudy
12:25 PM 39.9 °F 34.5 °F 30.0 °F 68% 29.98 in 10.0 mi SW 8.1 mph - N/A   Scattered Clouds
12:52 PM 39.9 °F 33.9 °F 30.0 °F 68% 29.97 in 10.0 mi SSW 9.2 mph - N/A   Scattered Clouds
1:52 PM 41.0 °F 35.2 °F 28.9 °F 62% 29.96 in 10.0 mi WSW 9.2 mph - N/A   Clear
2:52 PM 42.1 °F 38.4 °F 28.0 °F 58% 29.96 in 10.0 mi SW 5.8 mph - N/A   Clear
3:52 PM 41.0 °F 38.0 °F 28.0 °F 60% 29.94 in 10.0 mi SW 4.6 mph - N/A   Clear
4:52 PM 35.1 °F 31.0 °F 28.0 °F 76% 29.95 in 10.0 mi SSW 4.6 mph - N/A   Clear
5:52 PM 30.9 °F - 25.0 °F 79% 29.96 in 8.0 mi Calm Calm - N/A   Clear
6:52 PM 28.0 °F - 25.0 °F 88% 29.97 in 5.0 mi Calm Calm - N/A   Overcast
7:52 PM 28.0 °F - 25.0 °F 88% 29.98 in 4.0 mi Calm Calm - N/A   Overcast
8:52 PM 28.0 °F - 24.1 °F 85% 29.97 in 6.0 mi Calm Calm - N/A   Overcast
9:52 PM 28.0 °F - 25.0 °F 88% 29.97 in 5.0 mi Calm Calm - N/A   Mostly Cloudy
10:52 PM 28.9 °F - 26.1 °F 89% 29.98 in 6.0 mi Calm Calm - N/A   Overcast
11:52 PM 26.1 °F - 23.0 °F 88% 29.97 in 4.0 mi Calm Calm - N/A   Partly Cloudy